   K. Chambers, S. Chastel, T. de Boer, L. Denneau, J. Fairlamb, H.
   Flewelling, M. Huber, C.-C. Lin, E. Magnier, Y. Ramanjooloo, R. Wainscoat,
   R. Weryk. 1.8-m Ritchey-Chrétien + CCD.
(G96) Mt. Lemmon Survey  (N32.442751 W110.788720)  US/Arizona.  Observer A.
   Zooniverse. 1.5-m reflector + 10K CCD.
(H21) Astronomical Research Observatory, Westfield  (N39.483054 W87.968270)
   US/Illinois.  Observer R. Holmes. Measurers S. Foglia, L. Buzzi, T.
   Linder, R. Holmes. 0.76-m f/3.0 astrograph + CCD0.81-m f/4.0 astrograph +
   CCD0.61-m f/4.5 astrograph + CCD0.40-m f/5.32 astrograph + CCD.
(J57) Centro Astronómico Alto Turia, Valencia  (N39.950156 W1.109110)  Spain.
    Observer A. Fornas. Measurers E. Arce, V. Mas, G. Fornas. 0.43-m f/6.8
   reflector + CCD.
(L01) Višnjan Observatory, Tičan  (N45.290897 E13.749300)  Croatia.
   Observers K. Korlević, D. Pujagic, V. Dobos. Measurers D. Pujagic, K.
   Korlević. 1.0-m f/2.9 reflector + CCD.
(L06) Sormano 2 Observatory, Bellagio Via Lattea  (N45.970100 E9.254030)
   Italy.  Observer G. Ventre. Measurers G. Ventre, P. Sicoli. 0.28-m f/10
   reflector + CCD.
(L38) Gartensternwarte Schafsweide, Sehlde  (N52.095274 E9.699970)  Germany.
   Observer A. Opitz. 0.35-m f/4.6 Newton + CCD.
(T14) Mauna Kea-UH/Tholen NEO Follow-Up (CFHT)  (N19.825252 W155.468876)
   US/Hawaii.  Observer R. Weryk. 3.6-m Canada-France-Hawaii Telescope.
(U94) iTelescope Observatory, Beryl Junction  (N37.737780 W113.697500)
   US/Utah.  Observer H. Sato. 0.51-m f/4.5 Corrected Dall-Kirkham +
   CCD0.51-m f/6.8 astrograph + f/4.5 focal reducer + CCD.

Orbital elements:  P21IhFT
   Perihelion 2024 Jun 24.07730 +/- 0.0138 TT =  1:51:18 (JD 2460485.57730)
Epoch 2023 Sep 26.0 TT = JDT 2460213.5                           AutoNEOCP
M 359.95803277 +/- 0.00059          (J2000 ecliptic)
n   0.00015424 +/- 2.17e-6          Peri.  171.72208 +/- 0.0034
a 344.342586 +/- 3.24               Node    92.68262 +/- 0.0007
e   0.9906792 +/- 8.72e-5           Incl.  104.05404 +/- 0.00016
P6389.78                   H 13.96  G  0.15   U  4.0
q 3.20954076 +/- 9.97e-5    Q 685.475631 +/- 6.47
From 94 observations 2023 July 6-Sept. 26; mean residual 0".36
Residuals in arcseconds: 
230706 F52  .12-  .12-    230901 658  .30+  .52+    230908 658  .48-  .03-    
230706 F52  .06+  .15+    230901 658  .56+  .06+    230908 658  .22-  .09+    
230823 F52  .14-  .14-    230901 658  .40+  .19+    230908 658  .23-  .01+    
230823 F52  .00   .04+    230901 658  .56+  .18+    230908 658  .13+  .07-    
230823 F52  .16+  .03-    230901 595  .27+  .21+    230908 658  .04-  .01+    
230823 F52  .07+  .11-    230901 595  .64+  .14-    230908 L38  .02+  .00     
230823 F51  .06-  .04+    230901 595  .67+  .10+    230908 L38  .06+  .60-    
230823 F51  .09-  .05+    230902 L06  .40-  .20+    230909 T14  .12-  .06-    
230823 033  .01+  .03+    230902 587  .63+  .63+    230909 T14  .11-  .04-    
230823 033  .00   .10+    230902 587  .45+  .79+    230909 T14  .12-  .06-    
230823 033  .05-  .07+    230902 587  .27+  .46+    230909 T14  .10-  .06-    
230824 H21  .12+  .19+    230902 L06  .53-  .44+    230913 673  .38+  .20-    
230824 H21  .28-  .25-    230902 104  .09-  .88+    230913 673  .12-  .51-    
230824 H21  .03+  .14+    230902 104  .05+  .07+    230915 673  .37+  .59+    
230824 L01  .89+  .52-    230902 104  .07+  .56+    230915 673  .49+  .09-    
230824 L01  .07-  .20-    230904 L38  .38+  .36+    230918 F51  .08-  .07-    
230824 L01  .41+  .29-    230904 L38  .68+  .49+    230918 F51  .04-  .07-    
230824 L01  .92+  .29+    230904 L38  .87+  .22+    230918 F51  .06-  .01-    
230824 L01  .96+  .88+    230905 L38  .47+  .65+    230918 F51  .05-  .08-    
230825 H21  .28+  .24+    230905 A77  .25-  .17-    230921 G96  .22+  .07-    
230825 H21  .23+  .06-    230905 L38  .17-  .66+    230921 G96  .19+  .52-    
230825 H21  .23+  .06-    230905 L38  .39+  .12-    230921 G96  .51+  .11-    
230825 654  .36+  .34+    230905 A77  .58-  .28+    230921 G96  .63+  .11-    
230825 654  .23-  .59-    230905 A77  .83-  .04+    230922 J57  .00   .56+    
230825 L01  .40+  .04+    230906 U94  .08+  .11-    230922 J57  .07+  .58+    
230825 L01  .12+  .01-    230906 U94  .34+  .19-    230924 L38  .17+  .39+    
230825 106  .59+  .14+    230906 L38  .01-  .26-    230924 L38  .51+  .02+    
230825 L01  .87+  .82-    230906 C10  .48+  .18+    230926 291  .46+  .46+    
230825 106  .25+  .10-    230906 L38  .50+  .13-    230926 291  .23+  .10+    
230829 F51  .10-  .11-    230906 L38  .95+  .12-    230926 291  .22+  .30+    
230829 F51  .25-  .03-    230906 C10  .45+  .18+    
230901 658  .18+  .34+    230906 C10  .18+  .21+    

Ephemerides (geocentric):
Date (UTC) HH   RA             Dec           delta  r     elong  mag " sig PA
---- --------  ------------   ------------  ------ ------ -----  --- --------
2023 10 01 02  17 57 57.746   +37 48 24.86  4.0086 4.0649  86.1 20.8 .113  95
2023 10 01 03  17 57 57.855   +37 47 29.75  4.0087 4.0647  86.1 20.8 .114  95
2023 10 01 04  17 57 57.965   +37 46 34.64  4.0088 4.0644  86.0 20.8 .114  95
2023 10 01 05  17 57 58.078   +37 45 39.54  4.0090 4.0642  86.0 20.8 .114  94
2023 10 01 06  17 57 58.193   +37 44 44.45  4.0091 4.0640  86.0 20.8 .114  94
2023 10 01 07  17 57 58.310   +37 43 49.37  4.0093 4.0637  86.0 20.8 .115  94
2023 10 01 08  17 57 58.429   +37 42 54.29  4.0094 4.0635  86.0 20.8 .115  94
2023 10 01 09  17 57 58.551   +37 41 59.22  4.0095 4.0633  85.9 20.8 .115  94
2023 10 01 10  17 57 58.674   +37 41 04.16  4.0097 4.0630  85.9 20.8 .115  94
2023 10 01 11  17 57 58.800   +37 40 09.11  4.0098 4.0628  85.9 20.8 .116  94
2023 10 01 12  17 57 58.927   +37 39 14.06  4.0100 4.0626  85.9 20.8 .116  94
2023 10 01 13  17 57 59.057   +37 38 19.01  4.0101 4.0624  85.9 20.8 .116  94
2023 10 01 14  17 57 59.189   +37 37 23.98  4.0102 4.0621  85.8 20.8 .117  94
2023 10 01 15  17 57 59.323   +37 36 28.95  4.0104 4.0619  85.8 20.8 .117  94
2023 10 01 16  17 57 59.458   +37 35 33.93  4.0105 4.0617  85.8 20.8 .117  94
2023 10 01 17  17 57 59.596   +37 34 38.92  4.0107 4.0614  85.8 20.8 .117  94
2023 10 01 18  17 57 59.737   +37 33 43.91  4.0108 4.0612  85.7 20.8 .118  94
2023 10 01 19  17 57 59.879   +37 32 48.91  4.0109 4.0610  85.7 20.8 .118  94
2023 10 01 20  17 58 00.023   +37 31 53.92  4.0111 4.0608  85.7 20.8 .118  94
2023 10 01 21  17 58 00.169   +37 30 58.93  4.0112 4.0605  85.7 20.8 .118  94
2023 10 01 22  17 58 00.318   +37 30 03.95  4.0114 4.0603  85.7 20.8 .119  94
2023 10 01 23  17 58 00.468   +37 29 08.98  4.0115 4.0601  85.6 20.8 .119  94
2023 10 02 00  17 58 00.621   +37 28 14.01  4.0117 4.0598  85.6 20.8 .119  94
2023 10 02 01  17 58 00.775   +37 27 19.06  4.0118 4.0596  85.6 20.8 .120  94
2023 10 02 02  17 58 00.932   +37 26 24.11  4.0119 4.0594  85.6 20.8 .120  94
2023 10 02 03  17 58 01.091   +37 25 29.16  4.0121 4.0592  85.6 20.8 .120  94
2023 10 02 04  17 58 01.252   +37 24 34.23  4.0122 4.0589  85.5 20.8 .120  94
2023 10 02 05  17 58 01.415   +37 23 39.30  4.0124 4.0587  85.5 20.8 .121  94
2023 10 02 06  17 58 01.580   +37 22 44.38  4.0125 4.0585  85.5 20.8 .121  94
2023 10 02 07  17 58 01.747   +37 21 49.47  4.0127 4.0582  85.5 20.8 .121  94
2023 10 02 08  17 58 01.916   +37 20 54.56  4.0128 4.0580  85.5 20.8 .122  94
2023 10 02 09  17 58 02.087   +37 19 59.66  4.0129 4.0578  85.4 20.8 .122  94
2023 10 02 10  17 58 02.260   +37 19 04.77  4.0131 4.0576  85.4 20.8 .122  94
2023 10 02 11  17 58 02.436   +37 18 09.88  4.0132 4.0573  85.4 20.8 .122  94
2023 10 02 12  17 58 02.613   +37 17 15.01  4.0134 4.0571  85.4 20.8 .123  94
2023 10 02 13  17 58 02.792   +37 16 20.14  4.0135 4.0569  85.3 20.8 .123  94
2023 10 02 14  17 58 02.974   +37 15 25.27  4.0137 4.0566  85.3 20.8 .123  94
2023 10 02 15  17 58 03.157   +37 14 30.42  4.0138 4.0564  85.3 20.8 .123  94
2023 10 02 16  17 58 03.343   +37 13 35.57  4.0140 4.0562  85.3 20.8 .124  94
2023 10 02 17  17 58 03.530   +37 12 40.73  4.0141 4.0559  85.3 20.8 .124  94
2023 10 02 18  17 58 03.720   +37 11 45.90  4.0143 4.0557  85.2 20.8 .124  94
2023 10 02 19  17 58 03.912   +37 10 51.08  4.0144 4.0555  85.2 20.8 .125  94
2023 10 02 20  17 58 04.105   +37 09 56.26  4.0146 4.0553  85.2 20.8 .125  94
2023 10 02 21  17 58 04.301   +37 09 01.45  4.0147 4.0550  85.2 20.8 .125  94
2023 10 02 22  17 58 04.499   +37 08 06.65  4.0148 4.0548  85.2 20.8 .125  94
2023 10 02 23  17 58 04.699   +37 07 11.85  4.0150 4.0546  85.1 20.8 .126  94
2023 10 03 00  17 58 04.901   +37 06 17.07  4.0151 4.0543  85.1 20.8 .126  94
2023 10 03 01  17 58 05.105   +37 05 22.29  4.0153 4.0541  85.1 20.8 .126  94